RH
11 9 8 10 15 20 23 27 25 23 20 22 21 20 20 21 22 23 19 20 18 17 17 18 20 20 22 24 21 26 30 34 28 31 35 29 29 30 29 30 29 29 28 31 36
8 8 9 14 18 24 27 25 23 21 21 21 20 19 19 18 19 18 20 20 18 17 17 18 16 16 20 23 21 28 37 33 24 22 32 28 26 29 28 27 28 30 32 34 35
9 10 13 16 21 26 25 24 22 20 18 19 18 17 16 15 19 20 18 18 18 17 15 16 16 17 22 23 23 24 36 26 24 23 24 26 24 27 27 31 26 28 32 35 36
10 12 16 18 24 24 23 23 21 19 18 16 16 15 14 18 21 18 16 15 14 14 14 18 15 15 22 24 22 28 24 24 27 24 24 25 24 26 26 29 26 26 29 35 38
11 14 17 20 24 24 24 23 21 18 16 16 15 14 16 18 21 17 16 13 13 13 16 17 14 17 22 20 21 27 24 25 27 26 24 25 25 26 25 26 27 29 30 34 36
18 20 18 21 26 24 23 22 21 19 16 15 14 13 14 17 20 18 16 14 14 18 17 17 17 17 20 22 25 24 23 25 25 25 26 27 24 27 23 25 28 30 33 34 35
24 21 20 24 24 23 24 22 21 20 18 16 15 17 18 22 18 19 20 18 16 16 17 16 18 19 21 24 22 23 27 24 24 24 24 27 30 31 24 26 28 30 33 34 33
23 22 24 23 22 24 23 22 20 19 18 17 15 18 21 19 18 21 21 21 18 17 17 17 19 20 22 22 21 23 23 33 26 24 26 27 29 26 24 28 27 28 31 33 33
23 24 23 22 22 24 21 20 20 19 17 16 17 18 20 19 21 20 19 20 20 19 16 17 22 22 24 26 27 24 23 20 31 23 26 28 29 24 25 27 26 27 28 30 32
24 24 23 24 24 23 21 17 16 17 16 15 15 17 18 19 18 18 18 17 19 18 20 18 17 26 22 18 25 19 16 15 18 28 25 29 32 25 25 26 26 26 26 26 29
24 23 23 24 23 21 21 24 23 20 15 22 21 19 18 19 17 18 17 17 18 16 18 12 19 22 18 17 15 16 16 17 25 25 26 30 28 22 24 26 25 24 25 25 25
24 23 23 22 21 20 24 23 17 24 24 17 18 20 18 17 18 18 17 17 14 18 13 17 21 18 16 16 17 16 18 18 22 23 26 26 27 25 23 27 26 25 24 24 24
23 23 22 20 18 20 20 16 18 17 25 20 19 19 20 17 18 18 17 18 16 16 13 22 21 18 18 16 17 17 17 21 21 22 21 27 30 26 23 24 26 26 25 24 23
24 23 23 20 28 25 22 19 21 21 24 22 19 20 20 19 20 17 17 19 17 18 16 20 19 19 18 17 18 24 20 20 24 29 32 21 38 28 26 27 25 25 26 25 24
25 24 23 22 25 29 23 20 22 23 34 19 20 21 21 21 21 23 17 21 21 19 20 24 21 20 19 20 19 27 25 24 26 30 27 28 34 25 21 25 28 25 24 25 26
27 25 23 26 28 22 22 21 22 32 30 23 20 20 19 19 20 21 20 20 20 20 19 23 22 19 23 19 20 22 23 27 27 32 40 26 25 28 27 17 20 20 20 22 25
29 27 24 24 34 21 20 23 37 31 22 24 22 19 18 18 18 19 17 21 24 27 29 26 26 23 22 22 24 24 29 42 45 47 41 24 28 29 20 16 16 20 20 21 23
30 29 27 24 24 22 21 31 34 20 20 22 21 21 22 18 20 20 22 23 21 22 22 21 28 27 21 21 26 23 25 34 30 31 28 25 35 25 19 17 17 18 18 21 24
31 30 28 26 24 23 28 32 26 25 20 22 23 25 22 22 23 23 23 22 20 20 24 19 26 25 24 21 21 25 34 22 28 23 34 28 22 23 20 20 19 19 20 21 24
33 42 37 27 26 23 33 28 22 23 23 24 27 20 22 23 26 22 20 21 26 23 22 21 21 23 30 23 22 25 21 32 35 37 37 27 21 26 24 24 24 23 21 21 24
36 41 36 32 26 30 37 26 21 28 27 26 26 24 23 24 24 24 22 27 23 27 24 22 20 30 28 33 29 28 28 26 29 31 42 37 34 15 18 19 20 20 19 20 23
42 44 35 29 37 27 33 24 26 28 32 32 31 30 27 24 26 24 23 28 24 26 25 26 28 28 23 23 22 23 24 25 36 33 38 40 38 17 16 19 18 18 18 20 21
50 42 39 30 47 38 28 26 30 29 31 33 33 32 28 28 33 29 27 36 30 27 29 25 29 33 30 28 23 26 24 23 25 28 36 36 33 18 17 19 17 18 18 20 23
49 54 46 35 37 42 38 29 32 33 32 30 30 31 32 35 31 34 33 37 34 32 31 28 33 35 35 29 24 28 26 27 28 36 34 32 24 19 22 21 19 18 19 21 23
55 46 47 51 46 40 36 34 34 33 39 34 34 36 34 34 32 37 35 43 39 39 35 36 44 32 32 31 27 27 29 30 30 26 28 20 24 20 19 21 17 16 18 22 25
53 59 54 49 39 39 40 37 38 32 36 38 42 32 36 37 31 31 29 38 40 48 40 37 45 33 37 30 29 33 32 30 29 27 26 24 25 17 16 16 17 17 19 21 23
52 39 40 43 43 46 42 39 34 30 28 28 35 37 38 37 31 30 33 34 36 46 43 48 48 41 50 26 31 41 29 30 29 28 27 33 23 20 23 22 20 20 22 23 24
Wind_Speed
9 10 11 12 13 13 14 12 10 8 8 9 11 11 13 15 13 10 9 9 7 5 6 10 4 3 2 6 4 4 2 4 2 7 7 14 6 6 5 8 5 5 1 2 24
11 12 12 14 14 14 12 10 9 7 7 9 7 7 9 10 10 12 10 7 5 4 6 7 7 6 2 4 4 5 3 5 9 7 8 17 12 10 6 9 6 6 4 16 21
11 12 13 14 14 12 10 8 6 5 5 6 5 2 3 4 4 10 5 3 3 5 6 7 7 5 6 4 7 7 4 6 7 4 14 15 6 10 5 7 13 16 14 19 17
11 12 13 13 12 10 8 6 3 3 4 4 3 3 5 7 2 9 6 5 5 7 8 8 8 3 4 4 2 6 6 5 5 6 11 11 7 5 11 1 5 12 19 21 20
11 12 12 12 10 9 6 2 2 2 1 3 3 2 3 4 3 8 6 6 6 8 9 4 6 4 4 5 10 8 6 9 10 7 7 5 5 7 10 12 7 10 18 20 20
11 11 11 11 8 6 3 3 3 3 1 2 3 2 1 3 2 6 8 8 4 5 11 6 3 8 9 4 6 9 10 12 7 6 4 4 6 3 7 16 10 16 18 19 20
10 11 10 9 6 4 3 2 2 4 4 6 6 8 3 2 1 2 9 10 9 4 2 3 4 4 7 6 10 17 6 5 7 7 4 3 6 10 6 16 14 17 18 19 19
10 11 8 7 5 3 2 2 2 1 2 2 4 4 3 2 1 3 3 6 8 7 6 7 6 8 4 12 6 5 5 4 6 11 4 3 6 13 14 14 15 17 18 20 20
9 7 6 5 5 2 1 3 2 1 3 2 3 4 4 0 2 2 3 2 4 8 5 4 3 5 7 5 4 5 3 3 5 14 6 6 2 8 13 16 19 21 21 22 22
7 5 5 5 3 1 1 1 4 0 3 1 3 2 3 1 4 4 6 5 3 6 8 3 5 5 3 4 2 5 5 6 1 8 6 7 10 13 23 21 21 22 23 24 24
4 4 4 3 2 1 2 7 5 2 3 3 1 1 4 3 2 4 6 6 5 9 6 3 2 4 7 4 3 4 6 7 7 4 3 9 10 9 21 23 21 22 24 25 26
4 4 2 1 1 2 3 4 4 2 1 1 3 2 0 1 2 2 5 4 5 7 1 3 1 5 3 2 4 5 7 3 4 6 3 8 11 11 12 18 29 26 24 24 24
5 3 2 1 2 2 0 2 2 2 5 3 4 1 2 0 3 4 4 4 6 7 5 4 3 2 2 4 5 6 1 4 4 6 7 5 5 4 3 4 24 23 22 23 25
5 3 0 1 1 3 3 2 4 3 3 5 4 3 1 1 2 4 3 1 3 5 3 3 3 2 3 5 1 5 5 2 5 4 1 3 4 6 5 6 8 16 20 25 24
4 3 2 3 2 4 2 5 4 1 3 2 4 2 2 3 1 2 3 1 5 5 2 0 5 4 5 2 1 2 2 4 4 5 4 5 1 3 6 8 9 19 20 19 22
3 4 4 2 2 2 3 8 6 3 2 3 2 2 4 7 5 2 1 2 3 4 5 3 1 2 3 1 2 4 4 6 4 3 2 6 2 4 5 5 6 12 13 16 18
4 4 4 4 4 5 5 7 3 4 1 4 2 3 3 3 3 3 3 5 3 3 7 5 5 4 0 3 4 4 3 2 1 1 4 6 2 9 6 6 7 13 18 16 16
6 5 4 4 4 3 4 3 4 1 4 1 1 2 4 2 4 3 4 4 4 3 4 4 4 6 6 1 3 3 1 1 3 3 2 4 5 5 7 9 8 10 11 11 15
6 6 8 4 3 2 2 4 4 5 2 2 3 3 5 4 1 3 8 6 4 4 4 4 3 3 3 3 1 1 3 0 2 3 2 5 7 5 4 6 10 12 12 16 17
5 5 9 7 5 3 3 5 2 3 1 1 2 1 4 4 2 5 4 3 4 3 3 2 3 2 3 1 4 3 4 0 2 2 5 5 5 6 7 9 9 12 19 20 19
3 4 6 8 8 4 4 5 2 2 2 2 3 3 5 4 4 4 5 1 2 4 2 4 3 2 3 7 5 2 3 3 1 2 4 3 6 3 6 7 8 12 14 17 23
3 4 4 5 3 6 5 6 0 4 2 3 2 3 4 3 4 4 4 4 4 7 2 1 3 4 4 3 3 2 3 6 3 4 4 3 8 6 3 7 7 11 12 13 17
2 7 6 5 3 5 6 2 2 4 5 5 4 6 4 2 3 7 3 2 4 3 1 2 3 4 1 0 2 4 5 4 2 1 6 4 6 2 5 6 13 16 18 18 19
3 3 5 10 13 3 5 7 7 5 5 4 3 1 3 5 6 4 2 2 3 1 3 1 3 6 3 1 3 5 6 8 6 4 4 12 13 13 9 8 6 11 19 20 20
4 4 2 2 5 12 11 8 7 3 4 5 4 8 6 4 5 6 6 3 4 5 2 2 5 5 9 8 6 8 9 10 14 19 8 17 11 16 9 9 17 15 11 11 19
3 3 3 7 8 7 6 4 7 10 7 5 7 4 9 7 7 3 3 5 6 5 6 4 4 2 5 11 6 7 10 13 19 21 18 21 23 23 32 29 16 15 15 20 21
6 10 5 8 4 4 5 5 5 3 7 15 1 5 8 7 12 7 3 2 7 9 8 6 3 3 5 1 5 8 12 17 8 8 16 14 22 10 10 9 15 17 17 19 24
Wind_Direction
146 142 138 132 123 128 130 124 121 119 119 117 116 106 97 84 63 47 42 35 48 46 5 0 306 353 18 18 23 312 222 120 107 184 122 150 150 167 152 125 141 164 58 143 177
138 134 134 128 129 132 129 127 124 120 121 129 122 106 109 88 88 30 22 24 28 10 347 328 353 326 40 13 6 18 53 51 12 40 138 165 165 165 160 161 177 179 159 166 183
131 133 137 129 133 134 132 131 123 121 136 146 135 77 94 51 73 3 352 349 322 324 322 326 319 325 80 48 7 11 55 106 41 27 140 166 165 164 206 184 211 196 176 185 190
130 141 136 134 133 132 130 125 122 132 145 165 170 73 63 33 33 341 342 329 323 313 312 314 291 248 70 55 72 105 42 79 117 98 133 152 170 192 218 165 133 188 200 193 190
141 144 136 133 136 133 122 110 114 117 169 187 187 148 115 80 42 2 342 342 344 353 327 305 308 117 110 103 80 84 106 97 118 113 134 151 198 221 224 230 203 181 190 199 191
148 136 133 136 140 127 98 95 73 70 113 183 178 152 304 293 24 18 29 6 14 18 60 59 83 120 92 61 22 117 122 126 143 136 143 201 219 199 245 204 168 182 189 195 194
142 131 135 140 136 117 91 86 54 85 93 107 126 111 77 148 304 2 43 33 35 38 327 106 102 280 124 108 116 135 119 153 171 176 172 228 257 224 206 184 176 185 192 198 203
137 130 136 139 133 100 92 30 17 63 30 92 127 78 76 162 63 27 38 355 13 36 54 99 99 106 100 122 136 218 177 197 153 165 155 178 282 169 178 180 193 198 204 206 211
138 131 140 132 130 129 20 42 24 353 22 86 63 343 117 30 17 311 358 3 333 341 5 48 76 124 141 218 176 206 254 138 170 191 132 198 319 129 183 191 199 205 210 213 215
146 131 124 130 140 150 296 38 28 342 9 50 103 184 110 54 291 322 326 328 340 305 290 247 222 202 234 358 33 341 349 343 148 187 212 218 251 232 200 194 206 209 213 218 218
157 139 130 152 157 332 283 327 288 173 10 68 55 110 82 325 3 349 314 311 272 267 273 188 281 57 67 31 343 311 304 290 90 115 237 236 262 270 185 193 208 219 219 220 224
154 132 134 159 244 347 19 349 339 121 220 67 79 98 261 12 288 209 320 277 307 285 286 244 147 73 76 320 291 283 271 308 104 154 193 267 286 273 152 202 205 212 223 226 223
158 149 92 33 356 327 121 86 56 316 259 168 196 167 183 261 313 325 331 339 291 293 329 66 63 105 281 238 303 290 63 16 329 317 238 320 272 182 223 253 209 216 225 228 228
181 194 96 55 60 69 349 3 333 315 269 144 200 191 117 240 226 289 330 316 250 312 358 44 135 248 251 272 31 294 36 352 299 317 296 143 289 211 175 211 213 217 226 229 230
221 229 203 9 139 300 241 352 335 310 273 253 135 212 254 239 316 209 312 218 290 341 269 100 181 205 249 44 42 9 16 304 296 267 295 188 192 205 167 213 207 217 227 232 228
240 253 246 345 343 238 290 326 321 234 230 137 122 171 219 194 189 283 240 275 265 284 225 84 342 316 12 20 234 350 257 206 233 240 262 149 177 253 196 179 163 180 205 220 226
241 254 266 253 249 279 291 332 273 245 244 144 149 199 259 218 192 213 219 206 234 262 199 157 195 111 231 261 168 230 247 247 276 286 237 124 268 244 176 170 181 189 211 214 218
243 255 255 254 281 292 286 269 261 113 58 5 286 230 246 91 199 188 266 246 198 206 286 242 263 176 157 316 353 296 323 267 265 303 338 132 237 250 140 139 179 205 208 217 227
251 268 271 251 269 288 291 257 334 32 7 343 186 265 197 155 240 216 213 263 69 181 246 339 145 87 12 22 83 110 249 63 296 32 17 231 254 21 133 199 213 219 226 234 231
249 274 261 259 258 261 264 274 306 69 75 266 279 110 324 144 177 193 258 37 123 11 2 3 280 187 115 259 221 234 321 194 275 263 272 289 281 235 214 228 217 213 223 236 239
269 280 245 247 231 234 234 240 44 119 164 264 311 303 237 306 240 288 278 134 87 141 301 337 228 141 126 200 183 168 238 238 21 172 215 295 266 194 204 184 181 206 220 234 233
226 256 321 237 204 227 230 274 96 173 196 247 268 291 281 303 263 256 284 79 104 158 203 82 319 272 198 70 47 311 273 174 160 228 237 166 270 236 200 147 199 236 239 243 238
263 280 282 218 245 243 225 253 283 191 198 190 236 224 42 294 251 240 102 114 154 203 287 134 240 299 293 39 43 255 204 253 63 148 220 179 262 29 160 205 234 244 251 245 238
306 287 231 213 241 292 310 255 212 213 279 237 287 4 190 232 232 279 218 124 199 259 182 92 265 231 248 103 178 229 233 205 185 197 215 229 267 261 244 275 275 286 253 238 235
212 263 289 241 243 241 260 295 312 204 209 229 248 219 197 254 220 218 220 140 190 200 202 226 249 241 262 284 270 236 236 201 212 226 208 262 233 263 278 299 302 297 273 240 229
269 298 331 285 287 291 224 236 257 263 165 214 232 266 224 243 223 334 190 156 197 153 194 190 256 296 276 247 231 258 248 233 229 239 245 260 278 276 277 280 270 265 265 257 253
248 264 281 276 286 245 241 235 267 5 271 237 229 274 263 261 283 264 242 200 167 157 191 165 228 206 258 192 285 277 241 222 222 222 218 232 243 279 278 253 265 277 271 266 265